This is the latest recevied weather packets stored in our database for station/object DB0TGO-13. If no packets are shown the sender has not sent any weather packets the latest 10 day(s).
| Time | Temp. | Humidity | Pressure | Rain* | Wind** | Luminosity | Snow |
|---|---|---|---|---|---|---|---|
| 1777320003 | 10.56° C | 54% | 1017 hPa | - | - | - | - |
| 1777319102 | 11.11° C | 52% | 1016.6 hPa | - | - | - | - |
| 1777318203 | 11.11° C | 52% | 1016.6 hPa | - | - | - | - |
| 1777317303 | 11.67° C | 47% | 1016.2 hPa | - | - | - | - |
| 1777316402 | 11.67° C | 47% | 1016.2 hPa | - | - | - | - |
| 1777315502 | 12.78° C | 42% | 1016.1 hPa | - | - | - | - |
| 1777314602 | 12.78° C | 42% | 1016.1 hPa | - | - | - | - |
| 1777313702 | 13.33° C | 45% | 1016.1 hPa | - | - | - | - |
| 1777312803 | 13.33° C | 45% | 1016.1 hPa | - | - | - | - |
| 1777311903 | 14.44° C | 39% | 1016 hPa | - | - | - | - |
| 1777311002 | 14.44° C | 39% | 1016 hPa | - | - | - | - |
| 1777310103 | 14.44° C | 38% | 1016 hPa | - | - | - | - |
| 1777309202 | 14.44° C | 38% | 1016 hPa | - | - | - | - |
| 1777308302 | 14.44° C | 46% | 1016 hPa | - | - | - | - |
| 1777307403 | 14.44° C | 46% | 1016 hPa | - | - | - | - |
| 1777306503 | 15° C | 43% | 1016.3 hPa | - | - | - | - |
| 1777305602 | 15° C | 43% | 1016.3 hPa | - | - | - | - |
| 1777304702 | 15.56° C | 40% | 1016.3 hPa | - | - | - | - |
| 1777303802 | 15.56° C | 40% | 1016.3 hPa | - | - | - | - |
| 1777302903 | 15.56° C | 41% | 1016.5 hPa | - | - | - | - |
| 1777302002 | 15.56° C | 41% | 1016.5 hPa | - | - | - | - |
| 1777301103 | 15.56° C | 36% | 1016.8 hPa | - | - | - | - |
| 1777300202 | 15.56° C | 36% | 1016.8 hPa | - | - | - | - |
| 1777299302 | 16.11° C | 40% | 1016.9 hPa | - | - | - | - |
| 1777298403 | 16.11° C | 40% | 1016.9 hPa | - | - | - | - |
* Rain since midnight (hover to see other rain measurements)
** Current wind speed in m/s (hover to see current wind gust speed)